File timestamp: Sun Aug  7 02:00:00 2016, Internal temp: 48.1414794921875
1470535201, -0.0178725682199001, 0.0617052428424358, -0.0212434753775597, 33874, 33254, 23271, -43.7776718139648
1470535202, -0.0746444687247276, 0.0640775039792061, -0.0208507310599089, 33944, 33329, 23163, NaN
1470535203, -0.0631001144647598, 0.0659196153283119, -0.0228170119225979, 34011, 33243, 23130, NaN
1470535204, 0.00742771103978157, 0.0665378496050835, -0.0218028370290995, 33963, 33288, 23148, NaN
1470535205, 0.0416864231228828, 0.0664000883698463, -0.0201686099171638, 33873, 33322, 23196, NaN
1470535206, 0.00141012773383409, 0.0686947330832481, -0.0209932569414377, 33921, 33424, 23210, NaN
1470535207.01, -0.0505674630403519, 0.0683362782001495, -0.0220440234988928, 33973, 33258, 23134, NaN
1470535207.01, -0.0660518184304237, 0.0633213147521019, -0.0215133596211672, 33954, 33254, 23065, NaN
1470535208.018, -0.030258983373642, 0.0618384219706059, -0.0207057632505894, 33918, 33225, 23096, NaN
1470535209.018, 0.00855276454240084, 0.0622954368591309, -0.0190446600317955, 33849, 33413, 23348, NaN
1470535210.018, -0.028434107080102, 0.0601259581744671, -0.0212061256170273, 33966, 33272, 23205, NaN
1470535211.018, -0.0605300776660442, 0.0568213909864426, -0.0228836592286825, 34012, 33169, 23005, NaN
1470535212.018, -0.0160104390233755, 0.0566654540598392, -0.022092442959547, 33877, 33147, 23107, NaN
1470535213.018, 0.036898210644722, 0.0578504614531994, -0.0230155996978283, 33916, 33310, 23331, NaN
1470535214.018, 0.0454468838870525, 0.0587300509214401, -0.0236834175884724, 33988, 33229, 23183, NaN
1470535215.018, 0.028280682861805, 0.0606072917580605, -0.0225492734462023, 33842, 33250, 23191, NaN
1470535216.018, -0.00234068743884563, 0.0624125599861145, -0.0241412222385406, 33909, 33238, 23168, NaN
1470535217.018, 0.00167058582883328, 0.0629951506853104, -0.0267821345478296, 34004, 33202, 23115, NaN
1470535218.028, 0.0435456894338131, 0.0614901557564735, -0.0255603417754173, 33952, 33220, 23163, NaN
1470535219.028, 0.0474225655198097, 0.0613363459706306, -0.023900980129838, 33886, 33306, 23245, NaN
1470535220.028, -0.0144179780036211, 0.0601794943213463, -0.0243977084755898, 33855, 33249, 23195, NaN
1470535221.028, -0.0519074276089668, 0.0553233548998833, -0.0269273146986961, 33956, 33088, 22961, NaN
1470535221.028, 0.0117262825369835, 0.0524188168346882, -0.026399863883853, 34002, 33105, 23065, NaN
1470535222.034, 0.0720270723104477, 0.0538685210049152, -0.0241962280124426, 33859, 33224, 23249, NaN
1470535223.034, 0.0343950986862183, 0.0552859678864479, -0.0236287228763103, 33857, 33235, 23227, NaN
1470535224.034, -0.0325799100100994, 0.0562642477452755, -0.0267923828214407, 33945, 33142, 23103, NaN
1470535225.034, -0.0164439212530851, 0.0574529767036438, -0.0283388830721378, 34013, 33258, 23090, NaN
1470535226.034, 0.0483476966619492, 0.0603670477867126, -0.026480870321393, 33835, 33302, 23199, NaN
1470535227.034, 0.0640447065234184, 0.0649389997124672, -0.0261277295649052, 33900, 33332, 23150, NaN
1470535228.044, 0.0256243608891964, 0.0665457025170326, -0.0280376374721527, 33975, 33257, 23237, NaN
1470535229.044, -0.0200483091175556, 0.0674584805965424, -0.0289019141346216, 34001, 33337, 23195, NaN
1470535230.044, -0.0402923636138439, 0.0681247189640999, -0.0273410137742758, 33906, 33408, 23188, NaN
1470535230.044, -0.0454520769417286, 0.0679438784718513, -0.0264435689896345, 33921, 33414, 23105, NaN
1470535231.05, -0.0539697669446468, 0.0655411407351494, -0.0279112942516804, 33922, 33248, 23177, NaN
1470535232.05, -0.038114957511425, 0.0636215135455132, -0.0279148183763027, 34000, 33244, 23095, NaN
1470535233.05, -0.0101036159321666, 0.0622348338365555, -0.0257045943289995, 33873, 33219, 23173, NaN
1470535234.05, -0.0195304956287146, 0.0613263994455338, -0.0237425025552511, 33883, 33322, 23193, NaN
1470535234.052, -0.0448956824839115, 0.0616973526775837, -0.024836590513587, 33942, 33368, 23199, NaN
1470535235.054, -0.0517288446426392, 0.0619079172611237, -0.0259169898927212, 33978, 33277, 23118, NaN
1470535236.054, -0.0160424187779427, 0.0616736263036728, -0.0255060009658337, 33971, 33289, 23040, NaN
1470535237.054, 0.0385974086821079, 0.0623768232762814, -0.0245456453412771, 33918, 33270, 23195, NaN
1470535238.064, 0.0389858148992062, 0.0610230378806591, -0.0246075037866831, 33890, 33224, 23283, NaN
1470535238.064, 0.00381721509620547, 0.0606262534856796, -0.0247327852994204, 33922, 33346, 23167, NaN
1470535239.072, -0.0201235618442297, 0.0609907656908035, -0.0252967290580273, 33955, 33431, 23157, NaN
1470535240.072, -0.0410974957048893, 0.0592952705919743, -0.0258344374597073, 33945, 33194, 23147, NaN
1470535241.072, 0.00224829465150833, 0.0566047169268131, -0.0246083475649357, 33846, 33078, 23135, NaN
1470535242.072, 0.0587747655808926, 0.0567556843161583, -0.0242576915770769, 33918, 33303, 23343, NaN
1470535243.072, 0.0216379668563604, 0.0552015900611877, -0.024374432861805, 33975, 33280, 23177, NaN
1470535244.072, -0.0327775999903679, 0.0519000813364983, -0.0236764922738075, 33972, 32972, 23006, NaN
1470535245.072, 0.0138172507286072, 0.0513451807200909, -0.0209207460284233, 33873, 33123, 23046, NaN
1470535246.072, 0.0699559673666954, 0.054009635001421, -0.0205687899142504, 33861, 33343, 23244, NaN
1470535247.072, 0.0599630363285542, 0.0542321242392063, -0.0228398963809013, 33948, 33167, 23142, NaN
1470535248.072, 0.0238304305821657, 0.0543559193611145, -0.0240162629634142, 33945, 33131, 23070, NaN
1470535249.082, -0.000116707989946008, 0.0546590760350227, -0.025200804695487, 33941, 33200, 23141, NaN
1470535250.082, 0.00186777953058481, 0.0548609346151352, -0.0238022822886705, 33910, 33168, 23201, NaN
1470535251.082, 0.011514138430357, 0.0551056899130344, -0.0223934836685658, 33879, 33124, 23192, NaN
1470535252.082, 0.0104039162397385, 0.0564993806183338, -0.0224672071635723, 33888, 33242, 23156, NaN
1470535253.082, 0.0128550911322236, 0.057481974363327, -0.0237565655261278, 33935, 33332, 23247, NaN
1470535254.082, 0.0138433407992125, 0.0559276230633259, -0.0248508080840111, 33969, 33308, 23203, NaN
1470535255.082, 0.0188731756061316, 0.0544728375971317, -0.0215417928993702, 33872, 33214, 23166, NaN
1470535256.082, -0.00464690057560802, 0.0559448562562466, -0.0191609486937523, 33855, 33293, 23175, -43.8943786621094
1470535257.082, -0.0535930395126343, 0.0583284236490726, -0.0230415035039186, 33891, 33271, 23120, NaN
1470535258.082, -0.0333235487341881, 0.0587303079664707, -0.0245048142969608, 34055, 33205, 23118, NaN
1470535259.082, 0.04119823127985, 0.062362302094698, -0.0220592506229877, 33936, 33412, 23211, NaN
1470535260.082, 0.0230359211564064, 0.0668565109372139, -0.0202129185199738, 33896, 33357, 23237, NaN
1470535261.09, -0.0844166800379753, 0.0678067728877068, -0.0230493173003197, 33894, 33261, 23122, NaN
1470535261.09, -0.0878010913729668, 0.0634929090738297, -0.0249345954507589, 33992, 33209, 22994, NaN
1470535262.098, 0.0428041964769363, 0.0624722801148891, -0.0235057342797518, 33954, 33409, 23228, NaN
1470535263.098, 0.0471295341849327, 0.0639266967773438, -0.0201441030949354, 33886, 33538, 23419, NaN
1470535264.098, -0.124412439763546, 0.0588298551738262, -0.0218245089054108, 33942, 33188, 23091, NaN
1470535265.098, -0.150540709495544, 0.0532096400856972, -0.0233560465276241, 34003, 32974, 22854, NaN
1470535266.098, 0.0169845577329397, 0.0515558682382107, -0.0213774032890797, 33900, 33168, 23150, NaN
1470535267.098, 0.10130962729454, 0.0540249869227409, -0.0202963855117559, 33874, 33243, 23370, NaN
1470535268.098, 0.0156553518027067, 0.0542302243411541, -0.0214914698153734, 33939, 33283, 23204, NaN
1470535269.098, -0.0679865553975105, 0.0540164224803448, -0.0212998259812593, 33918, 33130, 23096, NaN
1470535270.098, -0.0438385047018528, 0.0559216104447842, -0.022124731913209, 33944, 33231, 23080, NaN
1470535271.098, 0.0544718131422997, 0.0585351027548313, -0.0217580832540989, 33885, 33194, 23137, NaN
1470535272.106, 0.110921062529087, 0.0603333152830601, -0.0207322407513857, 33937, 33310, 23186, NaN
1470535273.106, 0.074905626475811, 0.062692329287529, -0.0207630507647991, 34004, 33387, 23189, NaN
1470535274.106, -0.0103844981640577, 0.0618817396461964, -0.0200953911989927, 33919, 33240, 23264, NaN
1470535275.106, -0.0796080902218819, 0.0596172772347927, -0.0201308093965054, 33894, 33200, 23050, NaN
1470535275.106, -0.0540766380727291, 0.0580369904637337, -0.0212753284722567, 33954, 33358, 23004, NaN
1470535276.112, 0.0563461668789387, 0.0567194037139416, -0.0197051763534546, 33966, 33144, 23140, NaN
1470535277.112, 0.103080205619335, 0.056760910898447, -0.016848174855113, 33898, 33131, 23337, NaN
1470535278.112, 0.0260141883045435, 0.0574222132563591, -0.015983808785677, 33921, 33185, 23173, NaN
1470535279.112, -0.0444092527031898, 0.0581729114055634, -0.0171820484101772, 33923, 33160, 23135, NaN
1470535280.112, -0.0122504597529769, 0.0602394342422485, -0.0174647066742182, 33948, 33223, 23099, NaN
1470535281.112, 0.0490255765616894, 0.0624873898923397, -0.0165261644870043, 33955, 33298, 23147, NaN
1470535282.112, 0.0552953518927097, 0.0644171535968781, -0.0161072891205549, 33881, 33288, 23201, NaN
1470535283.12, 0.0183336269110441, 0.0642422139644623, -0.0154164331033826, 33885, 33209, 23229, NaN
1470535284.12, -0.0108878957107663, 0.0635812133550644, -0.0161619279533625, 34002, 33251, 23160, NaN
1470535284.12, -0.00567458849400282, 0.0627421438694, -0.0161057319492102, 33976, 33309, 23251, NaN
1470535285.126, -0.0298418812453747, 0.0614776723086834, -0.0150528019294143, 33902, 33219, 23204, NaN
1470535286.126, -0.0659399703145027, 0.0579369328916073, -0.0151341548189521, 33939, 33159, 23048, NaN
1470535287.126, -0.0140341138467193, 0.0567156672477722, -0.0140926660969853, 33932, 33175, 23076, NaN
1470535288.126, 0.0405866168439388, 0.057054940611124, -0.0124687282368541, 33861, 33132, 23230, NaN
1470535288.126, 0.0158094298094511, 0.0562697015702724, -0.01191012468189, 33923, 33216, 23207, NaN
1470535289.128, -0.0155654065310955, 0.0555056594312191, -0.012257432565093, 33897, 33124, 23251, NaN
1470535290.128, -0.0226025711745024, 0.059491440653801, -0.0116159040480852, 33979, 33220, 23171, NaN
1470535291.128, -0.0195699576288462, 0.0618584603071213, -0.0110098607838154, 33939, 33199, 23096, NaN
1470535292.128, 0.0197335556149483, 0.0638862997293472, -0.0097674997523427, 33857, 33272, 23107, NaN
1470535292.128, 0.0589763112366199, 0.0671884194016457, -0.0106399059295654, 33907, 33386, 23358, NaN
1470535293.136, 0.0093874940648675, 0.0693152323365211, -0.0107085546478629, 34010, 33343, 23260, NaN
1470535294.136, -0.0560222007334232, 0.0679184421896935, -0.0104586416855454, 33961, 33235, 23018, NaN
1470535295.136, -0.0245316363871098, 0.0688758790493011, -0.00956163741648197, 33945, 33307, 22994, NaN
1470535296.136, 0.0318969674408436, 0.0703638345003128, -0.00812122877687216, 33873, 33369, 23298, NaN
1470535296.136, -0.0112530756741762, 0.068209670484066, -0.00843411777168512, 33880, 33236, 23279, NaN
1470535297.14, -0.0673644319176674, 0.0641744360327721, -0.0102241383865476, 33975, 33217, 23044, NaN
1470535298.14, -0.0357585474848747, 0.0656571984291077, -0.0117901545017958, 33995, 33217, 23084, NaN
1470535299.14, -0.0264723300933838, 0.0681895762681961, -0.00982289668172598, 33897, 33352, 23344, NaN
1470535300.14, -0.0787766203284264, 0.0671100988984108, -0.0104292733594775, 33889, 33257, 23150, NaN
1470535301.14, -0.035573948174715, 0.0669770240783691, -0.0116083668544888, 33957, 33190, 22957, NaN
1470535302.15, 0.0776595994830132, 0.0688315629959106, -0.0108947893604636, 33951, 33223, 23134, NaN
1470535303.15, 0.106590330600739, 0.0703958123922348, -0.0105323232710361, 33891, 33305, 23343, NaN
1470535304.15, 0.0199663676321507, 0.0712419524788857, -0.0116522088646889, 33903, 33385, 23243, NaN
1470535305.15, -0.0737966373562813, 0.070342943072319, -0.0121529465541244, 33918, 33299, 23087, NaN
1470535306.15, -0.0632626935839653, 0.067018173635006, -0.0108100045472383, 33898, 33188, 23024, NaN
1470535307.15, 0.0246743932366371, 0.0653556808829308, -0.00875702872872353, 33902, 33219, 23188, NaN
1470535308.15, 0.0698429718613625, 0.0654482766985893, -0.00991736445575953, 33952, 33291, 23291, NaN
1470535309.15, 0.038093987852335, 0.062753438949585, -0.0112460413947701, 33942, 33078, 23093, NaN
1470535310.15, 0.0234884805977345, 0.0606561936438084, -0.0114569831639528, 33925, 33163, 23126, -43.5046005249023
1470535311.15, 0.00718187587335706, 0.0618987753987312, -0.0108349584043026, 33935, 33267, 23241, NaN
1470535312.15, -0.0556835494935513, 0.0620704554021358, -0.0133859999477863, 33955, 33147, 23163, NaN
1470535313.15, -0.0467507503926754, 0.0600742027163506, -0.0138080371543765, 33868, 33062, 23014, NaN
1470535314.158, 0.0931580886244774, 0.0599096156656742, -0.0133802788332105, 33941, 33135, 23125, NaN
1470535314.158, 0.192808210849762, 0.0639669373631477, -0.0117027033120394, 33910, 33299, 23484, NaN
1470535315.166, 0.0546584129333496, 0.0656407326459885, -0.0123353041708469, 33920, 33319, 23298, NaN
1470535316.166, -0.113038182258606, 0.0642998218536377, -0.0155879622325301, 33910, 33175, 22958, NaN
1470535317.166, -0.0774969384074211, 0.06495750695467, -0.0169447138905525, 33956, 33197, 22991, NaN
1470535318.166, 0.0709578320384026, 0.0660741031169891, -0.0141661372035742, 33927, 33338, 23209, NaN
1470535319.166, 0.130270749330521, 0.0676944404840469, -0.0132516920566559, 33935, 33272, 23378, NaN
1470535320.166, 0.0178047232329845, 0.0659395456314087, -0.0132501125335693, 33885, 33193, 23322, NaN
1470535321.166, -0.107899144291878, 0.0620952248573303, -0.0148797789588571, 33959, 33177, 23085, NaN
1470535322.166, -0.0987114906311035, 0.0623646192252636, -0.0148450117558241, 34011, 33143, 23021, NaN
1470535323.166, 0.00224041263572872, 0.0637839287519455, -0.0132147436961532, 33920, 33074, 23117, NaN
1470535324.166, 0.0674518719315529, 0.0660851895809174, -0.0105828326195478, 33883, 33260, 23243, NaN
1470535324.526, 0.0608924739062786, 0.0670465081930161, -0.0100297052413225, 33872, 33352, 23353, NaN
1470535325.534, -0.0302483029663563, 0.0681575387716293, -0.0115221329033375, 33957, 33411, 23218, NaN
1470535326.534, -0.0997555926442146, 0.0666772127151489, -0.0142225017771125, 33973, 33067, 23059, NaN
1470535327.534, -0.0370432958006859, 0.0669593065977097, -0.014339798130095, 34008, 33247, 23118, NaN
1470535327.534, 0.0670764073729515, 0.0685971602797508, -0.0135984336957335, 33948, 33452, 23369, NaN
1470535328.54, 0.0284456461668015, 0.0694652870297432, -0.0124466381967068, 33855, 33332, 23432, NaN
1470535329.54, -0.105791874229908, 0.0680183321237564, -0.0136868730187416, 33937, 33223, 23139, NaN
1470535330.54, -0.135444968938828, 0.0653138756752014, -0.014701290987432, 33984, 33200, 22999, NaN
1470535331.54, -0.00521285040304065, 0.0633915737271309, -0.0134432530030608, 33946, 33118, 23104, NaN
1470535332.54, 0.0802136138081551, 0.0630732700228691, -0.0116229923442006, 33913, 33353, 23475, NaN
1470535333.54, -0.0169437192380428, 0.0618863590061665, -0.0112719424068928, 33953, 33336, 23308, NaN
1470535334.54, -0.136881202459335, 0.0599752552807331, -0.0141033977270126, 33930, 33136, 23086, NaN
1470535335.54, -0.0694849342107773, 0.0585965998470783, -0.0138710327446461, 33996, 32986, 22959, NaN
1470535336.548, 0.115441635251045, 0.0603172034025192, -0.0138786053285003, 33961, 33194, 23224, NaN
1470535336.548, 0.158344939351082, 0.0651005432009697, -0.013516565784812, 33942, 33454, 23440, NaN
1470535337.556, -0.00956232193857431, 0.0665341913700104, -0.0126233194023371, 33911, 33346, 23224, NaN
1470535338.556, -0.130847737193108, 0.0639457628130913, -0.0139306839555502, 33934, 33082, 22977, NaN
1470535339.556, -0.0241367090493441, 0.0642395168542862, -0.0160513333976269, 33965, 33191, 23091, NaN
1470535340.556, 0.138714671134949, 0.0658540949225426, -0.0148540306836367, 33954, 33279, 23419, NaN
1470535340.556, 0.117614306509495, 0.0652182623744011, -0.0141501445323229, 33935, 33272, 23287, NaN
1470535341.56, -0.0163317322731018, 0.0638155043125153, -0.0154222976416349, 33985, 33203, 23143, NaN
1470535342.56, -0.0834085270762444, 0.0631460174918175, -0.0158065911382437, 34005, 33268, 23079, NaN
1470535343.56, -0.0612232051789761, 0.0612327829003334, -0.0147573994472623, 33849, 33160, 23226, NaN
1470535344.56, -0.00506739923730493, 0.0594853796064854, -0.0147982006892562, 33939, 33129, 23234, NaN
1470535345.56, 0.058601900935173, 0.0610762014985085, -0.0155184995383024, 33967, 33199, 23202, NaN
1470535346.568, 0.0646301209926605, 0.0647384002804756, -0.0160083658993244, 33963, 33296, 23237, NaN
1470535347.568, -0.00654823845252395, 0.0649761185050011, -0.0169960875064135, 33870, 33219, 23231, NaN
1470535348.568, -0.0422224663197994, 0.0647773444652557, -0.0157399829477072, 33963, 33200, 23072, NaN
1470535349.568, -0.0170895978808403, 0.0650700628757477, -0.0150011125952005, 33958, 33265, 23223, NaN
1470535349.568, 0.0142782228067517, 0.0655583813786507, -0.0157384779304266, 33951, 33260, 23285, NaN
1470535350.572, 0.022138524800539, 0.0631719678640366, -0.0165919959545135, 33922, 33145, 23258, NaN
1470535351.572, 0.0369148552417755, 0.0617491938173771, -0.0171195082366467, 33998, 33124, 23120, NaN
1470535352.572, 0.0327031165361404, 0.0625107735395432, -0.0158594902604818, 33966, 33335, 23242, NaN
1470535353.572, -0.0475313887000084, 0.0605327859520912, -0.0146180093288422, 33895, 33166, 23156, NaN
1470535353.572, -0.0836632698774338, 0.0601000860333443, -0.0164424348622561, 33941, 33117, 23070, NaN
1470535354.572, 0.0201727449893951, 0.0617530755698681, -0.0170223694294691, 33995, 33236, 23100, NaN
1470535355.582, 0.108400329947472, 0.0655562728643417, -0.0154940010979772, 33939, 33337, 23315, NaN
1470535356.582, 0.0559484697878361, 0.0670963078737259, -0.0156628433614969, 33935, 33373, 23303, NaN
1470535357.582, -0.045545220375061, 0.066040426492691, -0.0167452767491341, 33952, 33344, 23256, NaN
1470535358.582, -0.0815840885043144, 0.0635211020708084, -0.0171748194843531, 33962, 33197, 23052, NaN
1470535359.582, -0.0051204701885581, 0.0626085922122002, -0.0159722119569778, 34001, 33174, 23064, NaN
1470535360.582, 0.076041005551815, 0.062032662332058, -0.0145354429259896, 33965, 33258, 23308, NaN
1470535361.582, 0.0155393211171031, 0.0613404922187328, -0.0143496775999665, 33918, 33274, 23343, NaN
1470535362.582, -0.0922720208764076, 0.057765856385231, -0.0166001468896866, 33974, 33149, 23075, NaN
1470535363.582, -0.0904483646154404, 0.0549725219607353, -0.017300546169281, 33987, 33060, 23100, NaN
1470535364.582, -0.0154665792360902, 0.0555541925132275, -0.0145415849983692, 33884, 33189, 23211, -43.7625274658203
1470535365.582, 0.0364216081798077, 0.0576150268316269, -0.0145028354600072, 33898, 33233, 23267, NaN
1470535366.582, 0.0326341837644577, 0.058504294604063, -0.0159862078726292, 33982, 33251, 23179, NaN
1470535367.59, -0.00137478986289352, 0.0590168535709381, -0.0164987277239561, 33867, 33275, 23235, NaN
1470535368.59, 0.0194670222699642, 0.0608856156468391, -0.0158197768032551, 33931, 33274, 23243, NaN
1470535369.59, 0.0198459196835756, 0.0591339133679867, -0.0162521358579397, 33953, 33160, 23224, NaN
1470535370.59, 0.0128724919632077, 0.057392381131649, -0.0162299368530512, 33869, 33163, 23195, NaN
1470535371.59, -0.00403911108151078, 0.0568147897720337, -0.0163751114159822, 33973, 33290, 23239, NaN
1470535372.59, -0.024316405877471, 0.0566454380750656, -0.017132705077529, 34005, 33188, 23065, NaN
1470535373.59, -0.00497004669159651, 0.056233748793602, -0.0172427650541067, 33980, 33140, 23095, NaN
1470535374.59, 0.0398630313575268, 0.0582333542406559, -0.0170047450810671, 33936, 33182, 23261, NaN
1470535375.59, 0.0599205382168293, 0.0602033473551273, -0.0188451297581196, 33939, 33292, 23261, NaN
1470535376.59, 0.0278344713151455, 0.0621510557830334, -0.0200975518673658, 33944, 33259, 23169, NaN
1470535377.59, -0.0193370934575796, 0.0617118254303932, -0.0195888094604015, 34018, 33334, 23114, NaN
1470535378.598, -0.0236407462507486, 0.0607983954250813, -0.0179843343794346, 33898, 33322, 23255, NaN
1470535379.598, -0.00780918262898922, 0.0607928484678268, -0.0176433976739645, 33942, 33248, 23183, NaN
1470535380.598, -0.0035880662035197, 0.0582887083292007, -0.0190520789474249, 33981, 33069, 23094, NaN
1470535380.598, 0.0222713463008404, 0.0565858073532581, -0.019685598090291, 34050, 33184, 23084, NaN
1470535381.604, 0.0158982072025537, 0.0565281994640827, -0.0179304871708155, 33896, 33395, 23347, NaN
1470535382.604, -0.0918095111846924, 0.0556130856275558, -0.0171796586364508, 33966, 33205, 23181, NaN
1470535383.604, -0.157119408249855, 0.0505720563232899, -0.0185679215937853, 33922, 32963, 22991, NaN
1470535384.604, -0.0291467066854239, 0.0479711331427097, -0.0189860854297876, 33930, 32979, 23048, NaN
1470535385.604, 0.149376392364502, 0.0515769831836224, -0.0165119040757418, 33912, 33293, 23439, NaN
1470535386.604, 0.0890637785196304, 0.0558686256408691, -0.0146011048927903, 33855, 33288, 23397, NaN
1470535387.604, -0.0899229869246483, 0.0555926524102688, -0.0181907843798399, 33978, 33209, 23045, NaN
1470535388.604, -0.0937093570828438, 0.053308017551899, -0.0211459118872881, 33964, 33099, 23055, NaN
1470535389.614, 0.0456048920750618, 0.0536586567759514, -0.0200421959161758, 33949, 33123, 23229, NaN
1470535389.614, 0.112512841820717, 0.0575733929872513, -0.0169220957905054, 33835, 33193, 23358, NaN
1470535390.622, 0.0382755063474178, 0.061188630759716, -0.0174772031605244, 33910, 33422, 23333, NaN
1470535391.622, -0.0644720047712326, 0.0597689710557461, -0.0226729810237885, 33958, 33297, 23149, NaN
1470535392.622, -0.0316905155777931, 0.0575553402304649, -0.0241848062723875, 34035, 33238, 23096, NaN
1470535393.622, 0.0680028796195984, 0.0569791682064533, -0.0213016793131828, 34014, 33257, 23221, NaN
1470535393.622, 0.0626051127910614, 0.0578601583838463, -0.0188781712204218, 33880, 33218, 23258, NaN
1470535394.626, -0.0174028351902962, 0.0570168308913708, -0.0204042345285416, 33864, 33224, 23244, NaN
1470535395.626, -0.0553520955145359, 0.056775014847517, -0.0229111146181822, 34014, 33252, 23064, NaN
1470535396.626, 0.00762138329446316, 0.0560272261500359, -0.0243221316486597, 34005, 33288, 23086, NaN
1470535397.626, 0.0795025452971458, 0.0557781681418419, -0.0229629352688789, 33887, 33280, 23300, NaN
1470535398.626, 0.0272473767399788, 0.0562429279088974, -0.0224237497895956, 33888, 33286, 23385, NaN
1470535399.634, -0.0734657868742943, 0.0557082034647465, -0.0227741114795208, 33943, 33217, 23132, NaN
1470535400.634, -0.0627520382404327, 0.0545235387980938, -0.0231343135237694, 34003, 33322, 23018, NaN
1470535401.634, 0.0439041592180729, 0.0541655942797661, -0.0213714633136988, 33912, 33328, 23209, NaN
1470535402.634, 0.0880816280841827, 0.0547778308391571, -0.020941186696291, 33873, 33222, 23304, NaN
1470535402.634, 0.0186980366706848, 0.0534785613417625, -0.0221175737679005, 33972, 33239, 23261, NaN
1470535403.64, -0.0634518638253212, 0.0538250133395195, -0.0233178865164518, 33987, 33275, 23140, NaN
1470535404.64, -0.0734662637114525, 0.0524044223129749, -0.021445207297802, 33919, 33296, 23060, NaN
1470535405.64, -0.0159150920808315, 0.053056925535202, -0.0195455979555845, 33918, 33300, 23125, NaN
1470535406.64, 0.0487274825572968, 0.054417110979557, -0.0207947660237551, 33952, 33222, 23219, NaN
1470535407.64, 0.0895048305392265, 0.0527794286608696, -0.0221005417406559, 33954, 33183, 23079, NaN
1470535408.64, 0.096998006105423, 0.0542791783809662, -0.0209386274218559, 33968, 33380, 23300, NaN
1470535409.65, 0.00782204885035753, 0.0573773309588432, -0.0201606266200542, 33895, 33384, 23384, NaN
1470535410.65, -0.12361641228199, 0.0580570511519909, -0.0213676206767559, 33962, 33241, 23126, NaN
1470535411.65, -0.11578594148159, 0.0546700209379196, -0.0231836270540953, 33972, 33204, 22982, NaN
1470535411.65, 0.0500000976026058, 0.0544821247458458, -0.0218724589794874, 33893, 33329, 23159, NaN